GTSHC EGHQ-EGHH

Flight info

Callsign GTSHC
Flight time 0h 39m
Altitude 3000
Route EGHD SANDBANKS VRP
Aircraft C310/L-V/N

Departure

Time 2026-05-05 19:15
Airport Cornwall Airport Newquay (EGHQ)

Arrival

Time 2026-05-05 19:55
Airport Bournemouth Airport (EGHH)
Time Latitude Longitude Altitude Speed Heading
2026-05-05 19:11 50.43735 -4.99421 337 ft 0 kts 281°
2026-05-05 19:13 50.43735 -4.99425 337 ft 3 kts 284°
2026-05-05 19:13 50.43789 -4.99427 333 ft 13 kts 48°
2026-05-05 19:13 50.43843 -4.99376 333 ft 0 kts 354°
2026-05-05 19:13 50.43832 -4.99423 335 ft 17 kts 231°
2026-05-05 19:14 50.43894 -4.99508 332 ft 17 kts
2026-05-05 19:14 50.43947 -4.99504 330 ft 0 kts
2026-05-05 19:14 50.43975 -4.99500 329 ft 13 kts
2026-05-05 19:14 50.44079 -4.99539 328 ft 20 kts 300°
2026-05-05 19:15 50.44280 -5.00070 331 ft 87 kts 301°
2026-05-05 19:15 50.44624 -5.00963 662 ft 98 kts 307°
2026-05-05 19:15 50.45030 -5.01936 966 ft 111 kts 311°
2026-05-05 19:15 50.45474 -5.02903 1405 ft 113 kts 328°
2026-05-05 19:16 50.46277 -5.02895 1648 ft 133 kts 27°
2026-05-05 19:16 50.47037 -5.01954 1833 ft 142 kts 38°
2026-05-05 19:16 50.47558 -5.00630 1915 ft 154 kts 77°
2026-05-05 19:16 50.47243 -4.98960 1955 ft 170 kts 118°
2026-05-05 19:17 50.46534 -4.97436 1977 ft 176 kts 123°
2026-05-05 19:17 50.45858 -4.95849 1972 ft 172 kts 102°
2026-05-05 19:17 50.45756 -4.94059 1985 ft 160 kts 83°
2026-05-05 19:17 50.45789 -4.92339 1995 ft 156 kts 83°
2026-05-05 19:18 50.45710 -4.90647 1999 ft 161 kts 106°
2026-05-05 19:18 50.45197 -4.89095 2004 ft 163 kts 115°
2026-05-05 19:18 50.44689 -4.87556 2156 ft 155 kts 107°
2026-05-05 19:18 50.44342 -4.85993 2266 ft 148 kts 99°
2026-05-05 19:19 50.44113 -4.84458 2384 ft 141 kts 95°
2026-05-05 19:19 50.43957 -4.82959 2532 ft 137 kts 90°
2026-05-05 19:19 50.43839 -4.81494 2646 ft 133 kts 89°
2026-05-05 19:19 50.43789 -4.80064 2778 ft 130 kts 82°
2026-05-05 19:20 50.43781 -4.78658 2894 ft 129 kts 82°
2026-05-05 19:20 50.43755 -4.77237 2944 ft 132 kts 83°
2026-05-05 19:20 50.43737 -4.75791 2976 ft 134 kts 86°
2026-05-05 19:20 50.43703 -4.74298 3003 ft 139 kts 85°
2026-05-05 19:21 50.43669 -4.72743 3009 ft 145 kts 86°
2026-05-05 19:21 50.43635 -4.71135 3017 ft 150 kts 84°
2026-05-05 19:21 50.43606 -4.69480 2993 ft 153 kts 85°
2026-05-05 19:21 50.43572 -4.67810 2971 ft 153 kts 85°
2026-05-05 19:22 50.43540 -4.66138 2993 ft 154 kts 85°
2026-05-05 19:22 50.43510 -4.64457 3003 ft 155 kts 87°
2026-05-05 19:22 50.43468 -4.62767 2986 ft 155 kts 86°
2026-05-05 19:22 50.43437 -4.61093 2983 ft 153 kts 85°
2026-05-05 19:23 50.43412 -4.59426 2992 ft 154 kts 84°
2026-05-05 19:23 50.43374 -4.57733 2984 ft 156 kts 85°
2026-05-05 19:23 50.43337 -4.56052 2987 ft 157 kts 85°
2026-05-05 19:23 50.43305 -4.54343 2975 ft 157 kts 87°
2026-05-05 19:24 50.43268 -4.52639 2975 ft 156 kts 86°
2026-05-05 19:24 50.43230 -4.50936 2972 ft 156 kts 85°
2026-05-05 19:24 50.43199 -4.49245 2970 ft 155 kts 86°
2026-05-05 19:24 50.43159 -4.47566 2970 ft 153 kts 85°
2026-05-05 19:25 50.43127 -4.45898 2984 ft 154 kts 86°
2026-05-05 19:25 50.43087 -4.44213 2985 ft 155 kts 86°
2026-05-05 19:25 50.43051 -4.42522 2971 ft 155 kts 85°
2026-05-05 19:25 50.43016 -4.40833 2968 ft 155 kts 84°
2026-05-05 19:26 50.42832 -4.33148 2972 ft 151 kts 84°
2026-05-05 19:26 50.42544 -4.19899 2954 ft 156 kts 86°
2026-05-05 19:26 50.42796 -4.06721 2943 ft 147 kts 70°
2026-05-05 19:26 50.43143 -4.04581 2949 ft 146 kts 71°
2026-05-05 19:27 50.43348 -4.03017 2941 ft 146 kts 73°
2026-05-05 19:27 50.43535 -4.01462 2928 ft 144 kts 73°
2026-05-05 19:27 50.43732 -3.99937 2952 ft 142 kts 71°
2026-05-05 19:27 50.43937 -3.98414 2954 ft 143 kts 72°
2026-05-05 19:28 50.44135 -3.96875 2945 ft 144 kts 72°
2026-05-05 19:28 50.44334 -3.95332 2937 ft 144 kts 73°
2026-05-05 19:28 50.44527 -3.93797 2950 ft 143 kts 73°
2026-05-05 19:28 50.44722 -3.92255 2986 ft 146 kts 71°
2026-05-05 19:29 50.46085 -3.81282 2992 ft 146 kts 72°
2026-05-05 19:29 50.49440 -3.55387 2976 ft 155 kts 74°
2026-05-05 19:29 50.50005 -3.50474 2979 ft 153 kts 74°
2026-05-05 19:29 50.50221 -3.48838 2980 ft 153 kts 74°
2026-05-05 19:30 50.50425 -3.47197 2981 ft 153 kts 75°
2026-05-05 19:30 50.50624 -3.45561 2982 ft 153 kts 74°
2026-05-05 19:30 50.50828 -3.43946 2988 ft 153 kts 75°
2026-05-05 19:30 50.51033 -3.42302 2984 ft 154 kts 75°
2026-05-05 19:31 50.51235 -3.40656 2982 ft 153 kts 74°
2026-05-05 19:31 50.51441 -3.39015 2985 ft 153 kts 75°
2026-05-05 19:31 50.51643 -3.37371 2981 ft 153 kts 75°
2026-05-05 19:31 50.51844 -3.35733 2981 ft 152 kts 75°
2026-05-05 19:32 50.52048 -3.34099 2983 ft 153 kts 75°
2026-05-05 19:32 50.52249 -3.32462 2978 ft 152 kts 75°
2026-05-05 19:32 50.52450 -3.30828 2978 ft 152 kts 74°
2026-05-05 19:32 50.52582 -3.29746 2980 ft 152 kts 74°
2026-05-05 19:33 50.52784 -3.28114 2978 ft 152 kts 75°
2026-05-05 19:33 50.55045 -3.09637 2979 ft 149 kts 73°
2026-05-05 19:33 50.56269 -2.99424 2984 ft 152 kts 77°
2026-05-05 19:33 50.56437 -2.97784 3006 ft 152 kts 77°
2026-05-05 19:34 50.56631 -2.96147 2998 ft 152 kts 73°
2026-05-05 19:34 50.56858 -2.94526 2993 ft 152 kts 73°
2026-05-05 19:34 50.57060 -2.92890 2992 ft 153 kts 75°
2026-05-05 19:35 50.57442 -2.89603 2981 ft 152 kts 75°
2026-05-05 19:35 50.57639 -2.87965 2987 ft 153 kts 74°
2026-05-05 19:35 50.57837 -2.86323 2989 ft 153 kts 75°
2026-05-05 19:35 50.58030 -2.84674 2982 ft 153 kts 75°
2026-05-05 19:36 50.58223 -2.83032 2979 ft 152 kts 75°
2026-05-05 19:36 50.58417 -2.81397 2986 ft 152 kts 75°
2026-05-05 19:36 50.58610 -2.79765 2983 ft 151 kts 75°
2026-05-05 19:36 50.58803 -2.78137 2983 ft 151 kts 75°
2026-05-05 19:37 50.58994 -2.76509 2981 ft 151 kts 75°
2026-05-05 19:37 50.59181 -2.74908 2978 ft 151 kts 75°
2026-05-05 19:37 50.59373 -2.73288 2978 ft 151 kts 75°
2026-05-05 19:37 50.59563 -2.71672 2970 ft 150 kts 75°
2026-05-05 19:38 50.59750 -2.70068 2972 ft 149 kts 75°
2026-05-05 19:38 50.59938 -2.68471 2978 ft 148 kts 75°
2026-05-05 19:38 50.60126 -2.66871 2979 ft 149 kts 75°
2026-05-05 19:38 50.60313 -2.65272 2979 ft 148 kts 75°
2026-05-05 19:39 50.60498 -2.63674 2980 ft 149 kts 75°
2026-05-05 19:39 50.60685 -2.62072 2984 ft 149 kts 75°
2026-05-05 19:39 50.60874 -2.60460 2985 ft 150 kts 75°
2026-05-05 19:39 50.61060 -2.58845 2976 ft 150 kts 75°
2026-05-05 19:40 50.61250 -2.57231 2976 ft 150 kts 75°
2026-05-05 19:40 50.61437 -2.55616 2980 ft 150 kts 75°
2026-05-05 19:40 50.61624 -2.53997 2978 ft 150 kts 75°
2026-05-05 19:40 50.61811 -2.52379 2973 ft 150 kts 75°
2026-05-05 19:41 50.61999 -2.50761 2973 ft 150 kts 75°
2026-05-05 19:41 50.62187 -2.49140 2975 ft 151 kts 75°
2026-05-05 19:41 50.62370 -2.47516 2988 ft 151 kts 75°
2026-05-05 19:41 50.62559 -2.45893 3001 ft 151 kts 74°
2026-05-05 19:42 50.62751 -2.44264 3005 ft 152 kts 75°
2026-05-05 19:42 50.62937 -2.42629 2997 ft 152 kts 75°
2026-05-05 19:42 50.63120 -2.40998 2991 ft 151 kts 75°
2026-05-05 19:42 50.63308 -2.39386 2994 ft 152 kts 75°
2026-05-05 19:43 50.63495 -2.37751 2989 ft 152 kts 75°
2026-05-05 19:43 50.63683 -2.36114 2937 ft 154 kts 75°
2026-05-05 19:43 50.63874 -2.34441 2771 ft 155 kts 75°
2026-05-05 19:43 50.64063 -2.32765 2646 ft 156 kts 75°
2026-05-05 19:44 50.64256 -2.31075 2549 ft 158 kts 75°
2026-05-05 19:44 50.64452 -2.29358 2432 ft 160 kts 75°
2026-05-05 19:44 50.64648 -2.27623 2302 ft 161 kts 75°
2026-05-05 19:44 50.64848 -2.25875 2176 ft 163 kts 75°
2026-05-05 19:45 50.65043 -2.24127 2079 ft 159 kts 74°
2026-05-05 19:45 50.65225 -2.22485 2012 ft 146 kts 73°
2026-05-05 19:45 50.65398 -2.20976 1997 ft 135 kts 73°
2026-05-05 19:45 50.65560 -2.19571 1990 ft 126 kts 73°
2026-05-05 19:46 50.65707 -2.18252 1980 ft 118 kts 72°
2026-05-05 19:46 50.65847 -2.17010 1988 ft 115 kts 72°
2026-05-05 19:46 50.65993 -2.15746 2005 ft 119 kts 72°
2026-05-05 19:46 50.66142 -2.14434 2011 ft 125 kts 73°
2026-05-05 19:47 50.66296 -2.13055 2018 ft 130 kts 74°
2026-05-05 19:47 50.66455 -2.11621 2006 ft 135 kts 74°
2026-05-05 19:47 50.66617 -2.10156 1997 ft 137 kts 74°
2026-05-05 19:47 50.66782 -2.08667 1992 ft 138 kts 73°
2026-05-05 19:48 50.66950 -2.07172 1993 ft 139 kts 73°
2026-05-05 19:48 50.67122 -2.05657 1917 ft 144 kts 74°
2026-05-05 19:48 50.67302 -2.04046 1739 ft 153 kts 74°
2026-05-05 19:48 50.67485 -2.02362 1602 ft 157 kts 75°
2026-05-05 19:49 50.67624 -2.00706 1545 ft 149 kts 77°
2026-05-05 19:49 50.67735 -1.99136 1515 ft 139 kts 78°
2026-05-05 19:49 50.67822 -1.97673 1502 ft 130 kts 78°
2026-05-05 19:49 50.67884 -1.96307 1500 ft 121 kts 78°
2026-05-05 19:50 50.68065 -1.95083 1505 ft 111 kts 64°
2026-05-05 19:50 50.68336 -1.93967 1519 ft 107 kts 59°
2026-05-05 19:50 50.68866 -1.93290 1518 ft 101 kts 15°
2026-05-05 19:50 50.69556 -1.92981 1517 ft 105 kts 11°
2026-05-05 19:51 50.70285 -1.92757 1521 ft 109 kts
2026-05-05 19:51 50.71080 -1.92711 1424 ft 120 kts 358°
2026-05-05 19:51 50.71926 -1.92853 1356 ft 124 kts 352°
2026-05-05 19:51 50.72775 -1.93086 1327 ft 122 kts 350°
2026-05-05 19:52 50.73595 -1.93314 1263 ft 120 kts 350°
2026-05-05 19:52 50.74433 -1.93565 1127 ft 123 kts 349°
2026-05-05 19:52 50.75253 -1.93776 1068 ft 115 kts 357°
2026-05-05 19:52 50.75985 -1.93773 996 ft 99 kts
2026-05-05 19:53 50.76636 -1.93541 1011 ft 98 kts 30°
2026-05-05 19:53 50.76916 -1.92590 1018 ft 98 kts 81°
2026-05-05 19:53 50.76764 -1.91545 898 ft 95 kts 79°
2026-05-05 19:53 50.76942 -1.90490 749 ft 102 kts 67°
2026-05-05 19:54 50.77161 -1.89341 651 ft 114 kts 66°
2026-05-05 19:54 50.77411 -1.88120 541 ft 118 kts 65°
2026-05-05 19:54 50.77583 -1.86874 319 ft 114 kts 72°
2026-05-05 19:54 50.77772 -1.85696 136 ft 108 kts 75°
2026-05-05 19:55 50.77946 -1.84631 42 ft 86 kts 76°
2026-05-05 19:55 50.78062 -1.83955 39 ft 38 kts 79°
2026-05-05 19:55 50.78106 -1.83640 39 ft 19 kts 81°
2026-05-05 19:55 50.78066 -1.83570 39 ft 13 kts 164°
2026-05-05 19:56 50.77954 -1.83520 36 ft 7 kts 152°
2026-05-05 19:56 50.77877 -1.83478 36 ft 16 kts 174°
2026-05-05 19:56 50.77813 -1.83513 37 ft 11 kts 266°
2026-05-05 19:56 50.77811 -1.83556 37 ft 0 kts 262°